104  
ASUS41 KALY 181110  
RWRALY  
 
NEW YORK STATE HOURLY WEATHER ROUNDUP  
NATIONAL WEATHER SERVICE ALBANY NY  
700 AM EDT FRI SEP 18 2020  
 
NOTE: "FAIR" INDICATES FEW OR NO CLOUDS BELOW 12,000 FEET WITH NO  
SIGNIFICANT WEATHER AND/OR NO S TO VISIBILITY
.  
 
NYZ032-033-038>043-046>054-057>066-NYZ062>081-082-084-181200-  
EAST  
 
 
CITY SKY/WX TMP DP RH WIND PRES REMARKS
 
ALBANY MOCLDY 49 43 80 N8 30.06R  
GLENS FALLS CLOUDY 48 42 80 E3 30.08R  
POUGHKEEPSIE CLOUDY 58 50 75 N10 29.98R  
NEWBURGH MOCLDY 57 52 82 NE7 29.98S  
MONTGOMERY CLOUDY 57 51 80 NE12 29.98R  
WHITE PLAINS MOCLDY 58 53 84 N8 29.95R  
ISLIP CLOUDY 62 60 93 N13 29.92R  
NEW YORK CITY CLOUDY 64 55 72 N12 29.93R  
CENTRAL PARK PTCLDY 62 55 77 NE10G17 29.97R  

 
 
NYZ005>009-017-018-044>046-055-056-181200-  
CENTRAL  
 
 
CITY SKY/WX TMP DP RH WIND PRES REMARKS
 
FULTON CLOUDY 47 40 76 N6 30.12R  
SYRACUSE MOCLDY 44 40 85 CALM 30.12R  
ROME CLEAR 42 39 89 CALM 30.11R  
ELMIRA FOG 42 41 96 CALM 30.08R VSB 1/4  
BINGHAMTON PTCLDY 46 43 89 N12 30.05R  
MONTICELLO CLOUDY 55 54 96 E5 30.00R  

 
 
NYZ026>034-041>043-087-181200-  
NORTH  
 
 
CITY SKY/WX TMP DP RH WIND PRES REMARKS
 
WATERTOWN CLEAR 36 33 89 NE5 30.14R WCI 32  
FORT DRUM NOT AVBL  
OGDENSBURG FAIR 32 30 93 CALM 30.14R  
MASSENA PTCLDY 31 30 96 CALM 30.17R  
SARANAC LAKE CLEAR 28 25 88 CALM 30.10R  
PLATTSBURGH CLEAR 37 34 89 CALM 30.13R  

 
 
NYZ001>004-010>016-019>021-085-181200-  
WEST  
 
 
CITY SKY/WX TMP DP RH WIND PRES REMARKS
 
NIAGARA FALLS MOCLDY 51 45 79 NE7 30.13R  
BUFFALO CLOUDY 54 49 83 NE8 30.12R  
DUNKIRK CLOUDY 55 47 74 CALM 30.11R  
JAMESTOWN PTCLDY 47 43 86 N8 30.11R  
WELLSVILLE FOG 46 46 100 NE5 30.10R VSB 1/4  
ROCHESTER MOCLDY 53 44 71 NE9 30.13R  
PENN YAN CLOUDY 50 45 83 N3 30.11R  

 
 
KEY  
WCI = WIND CHILL INDEX  
VSB = VISIBILITY  
HX = HEAT INDEX  

 
 
 
CLICK HERE TO GO TO PREVIOUS BULLETINS.

The Nexlab NY Page
The Nexlab VT Page
The Nexlab MA Page
The Nexlab CT Page Main Text Page